Time,TemperatureF,DewpointF,PressureIn,WindDirection,WindDirectionDegrees,WindSpeedMPH,WindSpeedGustMPH,Humidity,HourlyPrecipIn,Conditions,Clouds,dailyrainin,SoftwareType,DateUTC
2013-03-04 00:00:00,10.7,6.3,30.09,NW,313,0.0,1.0,82,0.00, +TSGR FG,SKC,-99.99,VWS V12.07,2013-03-04 06:00:00,
2013-03-04 00:05:00,10.4,6.0,30.09,NW,313,0.0,1.0,82,0.00, +TSGR FG,SKC,-99.99,VWS V12.07,2013-03-04 06:05:00,
2013-03-04 00:10:00,10.2,5.8,30.09,NW,313,0.0,1.0,82,0.00, +TSGR FG,SKC,-99.99,VWS V12.07,2013-03-04 06:10:00,
2013-03-04 00:15:00,10.3,6.2,30.09,NW,313,0.0,0.0,83,0.00, +TSGR FG,SKC,-99.99,VWS V12.07,2013-03-04 06:15:00,
2013-03-04 00:20:00,10.3,6.4,30.09,NW,313,0.0,0.0,84,0.00, +TSGR FG,SKC,-99.99,VWS V12.07,2013-03-04 06:20:00,
2013-03-04 00:25:00,10.3,6.4,30.09,NW,313,0.0,0.0,84,0.00, +TSGR FG,SKC,-99.99,VWS V12.07,2013-03-04 06:25:00,
2013-03-04 00:30:00,10.2,6.3,30.09,NW,313,0.0,0.0,84,0.00, +TSGR FG,SKC,-99.99,VWS V12.07,2013-03-04 06:30:00,
2013-03-04 00:35:00,10.0,6.1,30.09,NW,313,0.0,0.0,84,0.00, +TSGR FG,SKC,-99.99,VWS V12.07,2013-03-04 06:35:00,
2013-03-04 00:40:00,9.8,5.9,30.09,NW,313,0.0,0.0,84,0.00, +TSGR FG,SKC,-99.99,VWS V12.07,2013-03-04 06:40:00,
2013-03-04 00:45:00,9.8,5.9,30.09,NW,313,0.0,0.0,84,0.00, +TSGR FG,SKC,-99.99,VWS V12.07,2013-03-04 06:45:00,
2013-03-04 00:50:00,9.8,5.9,30.09,NW,313,0.0,0.0,84,0.00, +TSGR FG,SKC,-99.99,VWS V12.07,2013-03-04 06:50:00,
2013-03-04 00:55:00,9.6,5.8,30.09,NW,313,0.0,0.0,84,0.00, +TSGR FG,SKC,-99.99,VWS V12.07,2013-03-04 06:55:00,
2013-03-04 01:00:00,9.4,5.6,30.09,NW,313,0.0,0.0,84,0.00, +TSGR FG,SKC,-99.99,VWS V12.07,2013-03-04 07:00:00,
2013-03-04 01:05:00,9.4,5.8,30.09,NW,313,0.0,0.0,85,0.00, +TSGR FG,SKC,-99.99,VWS V12.07,2013-03-04 07:05:00,
2013-03-04 01:10:00,9.4,5.8,30.10,NW,313,0.0,0.0,85,0.00, +TSGR FG,SKC,-99.99,VWS V12.07,2013-03-04 07:10:00,
2013-03-04 01:20:00,9.3,5.7,30.10,NW,313,0.0,0.0,85,0.00, +TSGR FG,SKC,-99.99,VWS V12.07,2013-03-04 07:20:00,
2013-03-04 01:25:00,9.3,5.7,30.10,NW,313,0.0,0.0,85,0.00, +TSGR FG,SKC,-99.99,VWS V12.07,2013-03-04 07:25:00,
2013-03-04 01:30:00,9.2,5.6,30.10,NW,313,0.0,0.0,85,0.00, +TSGR FG,SKC,-99.99,VWS V12.07,2013-03-04 07:30:00,
2013-03-04 01:35:00,9.2,5.6,30.10,NW,313,0.0,0.0,85,0.00, +TSGR FG,SKC,-99.99,VWS V12.07,2013-03-04 07:35:00,
2013-03-04 01:45:00,9.2,5.9,30.10,NW,313,0.0,0.0,86,0.00, +TSGR FG,SKC,-99.99,VWS V12.07,2013-03-04 07:45:00,
2013-03-04 01:50:00,9.2,5.9,30.10,NW,313,0.0,0.0,86,0.00, +TSGR FG,SKC,-99.99,VWS V12.07,2013-03-04 07:50:00,
2013-03-04 01:55:00,9.0,5.4,30.10,NW,313,1.0,1.0,85,0.00, +TSGR FG,SKC,-99.99,VWS V12.07,2013-03-04 07:55:00,
2013-03-04 02:05:00,8.4,4.8,30.10,NW,313,0.0,2.0,85,0.00, +TSGR FG,SKC,-99.99,VWS V12.07,2013-03-04 08:05:00,
2013-03-04 02:10:00,8.4,5.1,30.10,NW,313,0.0,2.0,86,0.00, +TSGR FG,SKC,-99.99,VWS V12.07,2013-03-04 08:10:00,
2013-03-04 02:15:00,8.5,5.2,30.10,NW,313,1.0,1.0,86,0.00, +TSGR FG,SKC,-99.99,VWS V12.07,2013-03-04 08:15:00,
2013-03-04 02:20:00,8.5,5.2,30.10,NW,313,0.0,1.0,86,0.00, +TSGR FG,SKC,-99.99,VWS V12.07,2013-03-04 08:20:00,
2013-03-04 02:25:00,8.4,5.1,30.10,NW,313,1.0,1.0,86,0.00, +TSGR FG,SKC,-99.99,VWS V12.07,2013-03-04 08:25:00,
2013-03-04 02:30:00,8.4,5.1,30.10,NW,313,0.0,1.0,86,0.00, +TSGR FG,SKC,-99.99,VWS V12.07,2013-03-04 08:30:00,
2013-03-04 02:35:00,8.4,5.1,30.10,NW,313,0.0,0.0,86,0.00, +TSGR FG,SKC,-99.99,VWS V12.07,2013-03-04 08:35:00,
2013-03-04 02:40:00,8.5,5.2,30.10,NW,313,0.0,0.0,86,0.00, +TSGR FG,SKC,-99.99,VWS V12.07,2013-03-04 08:40:00,
2013-03-04 02:45:00,8.5,5.4,30.10,NW,313,0.0,0.0,87,0.00, +TSGR FG,SKC,-99.99,VWS V12.07,2013-03-04 08:45:00,
2013-03-04 02:50:00,8.5,5.4,30.09,NW,313,0.0,0.0,87,0.00, +TSGR FG,SKC,-99.99,VWS V12.07,2013-03-04 08:50:00,
2013-03-04 02:55:00,8.6,5.5,30.09,NW,313,0.0,0.0,87,0.00, +TSGR FG,SKC,-99.99,VWS V12.07,2013-03-04 08:55:00,
2013-03-04 03:00:00,8.6,5.5,30.09,NW,313,0.0,0.0,87,0.00, +TSGR FG,SKC,-99.99,VWS V12.07,2013-03-04 09:00:00,
2013-03-04 03:05:00,8.6,5.5,30.09,NW,313,0.0,0.0,87,0.00, +TSGR FG,SKC,-99.99,VWS V12.07,2013-03-04 09:05:00,
2013-03-04 03:10:00,8.7,5.6,30.10,NW,313,0.0,0.0,87,0.00, +TSGR FG,SKC,-99.99,VWS V12.07,2013-03-04 09:10:00,
2013-03-04 03:15:00,8.7,5.6,30.10,NW,313,0.0,0.0,87,0.00, +TSGR FG,SKC,-99.99,VWS V12.07,2013-03-04 09:15:00,
2013-03-04 03:20:00,8.7,5.6,30.10,NW,313,0.0,1.0,87,0.00, +TSGR FG,SKC,-99.99,VWS V12.07,2013-03-04 09:20:00,
2013-03-04 03:25:00,8.6,5.5,30.10,NW,313,0.0,0.0,87,0.00, +TSGR FG,SKC,-99.99,VWS V12.07,2013-03-04 09:25:00,
2013-03-04 03:30:00,8.5,5.2,30.10,NW,313,0.0,0.0,86,0.00, +TSGR FG,SKC,-99.99,VWS V12.07,2013-03-04 09:30:00,
2013-03-04 03:35:00,8.5,5.4,30.10,NW,313,0.0,0.0,87,0.00, +TSGR FG,SKC,-99.99,VWS V12.07,2013-03-04 09:35:00,
2013-03-04 03:40:00,8.6,5.5,30.10,NW,313,0.0,0.0,87,0.00, +TSGR FG,SKC,-99.99,VWS V12.07,2013-03-04 09:40:00,
2013-03-04 03:45:00,8.8,5.7,30.10,NW,313,0.0,0.0,87,0.00, +TSGR FG,SKC,-99.99,VWS V12.07,2013-03-04 09:45:00,
2013-03-04 03:50:00,8.9,5.8,30.10,NW,313,0.0,0.0,87,0.00, +TSGR FG,SKC,-99.99,VWS V12.07,2013-03-04 09:50:00,
2013-03-04 04:00:00,8.9,5.8,30.10,NW,313,0.0,0.0,87,0.00, +TSGR FG,SKC,-99.99,VWS V12.07,2013-03-04 10:00:00,
2013-03-04 04:05:00,9.0,5.9,30.10,NW,313,0.0,0.0,87,0.00, +TSGR FG,SKC,-99.99,VWS V12.07,2013-03-04 10:05:00,
2013-03-04 04:10:00,9.0,6.2,30.11,NW,313,0.0,0.0,88,0.00, +TSGR FG,SKC,-99.99,VWS V12.07,2013-03-04 10:10:00,
2013-03-04 04:15:00,9.1,6.3,30.11,NW,313,0.0,0.0,88,0.00, +TSGR FG,SKC,-99.99,VWS V12.07,2013-03-04 10:15:00,
2013-03-04 04:20:00,9.3,6.5,30.11,NW,313,0.0,0.0,88,0.00, +TSGR FG,SKC,-99.99,VWS V12.07,2013-03-04 10:20:00,
2013-03-04 04:25:00,9.4,6.6,30.11,NW,313,0.0,0.0,88,0.00, +TSGR FG,SKC,-99.99,VWS V12.07,2013-03-04 10:25:00,
2013-03-04 04:30:00,9.4,6.6,30.11,NW,313,0.0,0.0,88,0.00, +TSGR FG,SKC,-99.99,VWS V12.07,2013-03-04 10:30:00,
2013-03-04 04:40:00,9.4,6.6,30.11,NW,313,0.0,0.0,88,0.00, +TSGR FG,SKC,-99.99,VWS V12.07,2013-03-04 10:40:00,
2013-03-04 04:45:00,9.5,6.7,30.11,NW,313,0.0,0.0,88,0.00, +TSGR FG,SKC,-99.99,VWS V12.07,2013-03-04 10:45:00,
2013-03-04 04:50:00,9.6,6.8,30.11,NW,313,0.0,0.0,88,0.00, +TSGR FG,SKC,-99.99,VWS V12.07,2013-03-04 10:50:00,
2013-03-04 05:00:00,9.5,6.7,30.11,NW,313,0.0,0.0,88,0.00, +TSGR FG,SKC,-99.99,VWS V12.07,2013-03-04 11:00:00,
2013-03-04 05:05:00,9.5,6.7,30.11,NW,313,0.0,0.0,88,0.00, +TSGR FG,SKC,-99.99,VWS V12.07,2013-03-04 11:05:00,
2013-03-04 05:10:00,9.5,6.7,30.11,NW,313,0.0,0.0,88,0.00, +TSGR FG,SKC,-99.99,VWS V12.07,2013-03-04 11:10:00,
2013-03-04 05:20:00,9.4,6.6,30.11,NW,313,0.0,0.0,88,0.00, +TSGR FG,SKC,-99.99,VWS V12.07,2013-03-04 11:20:00,
2013-03-04 05:25:00,9.4,6.6,30.11,NW,313,0.0,0.0,88,0.00, +TSGR FG,SKC,-99.99,VWS V12.07,2013-03-04 11:25:00,
2013-03-04 05:30:00,9.4,6.6,30.11,NW,313,0.0,0.0,88,0.00, +TSGR FG,SKC,-99.99,VWS V12.07,2013-03-04 11:30:00,
2013-03-04 05:35:00,9.4,6.6,30.11,NW,313,0.0,0.0,88,0.00, +TSGR FG,SKC,-99.99,VWS V12.07,2013-03-04 11:35:00,
2013-03-04 05:40:00,9.5,6.9,30.11,NW,313,0.0,0.0,89,0.00, +TSGR FG,SKC,-99.99,VWS V12.07,2013-03-04 11:40:00,
2013-03-04 05:45:00,9.6,7.0,30.11,NW,313,0.0,0.0,89,0.00, +TSGR FG,SKC,-99.99,VWS V12.07,2013-03-04 11:45:00,
2013-03-04 05:55:00,10.2,7.9,30.11,NW,313,0.0,0.0,90,0.00, +TSGR FG,SKC,-99.99,VWS V12.07,2013-03-04 11:55:00,
2013-03-04 06:00:00,10.4,7.8,30.11,NW,313,0.0,0.0,89,0.00, +TSGR FG,SKC,-99.99,VWS V12.07,2013-03-04 12:00:00,
2013-03-04 06:05:00,10.5,7.9,30.11,NW,313,0.0,0.0,89,0.00, +TSGR FG,SKC,-99.99,VWS V12.07,2013-03-04 12:05:00,
2013-03-04 06:10:00,10.4,7.8,30.11,NW,313,0.0,0.0,89,0.00, +TSGR FG,SKC,-99.99,VWS V12.07,2013-03-04 12:10:00,
2013-03-04 06:15:00,10.4,7.6,30.11,NW,313,0.0,0.0,88,0.00, +TSGR FG,SKC,-99.99,VWS V12.07,2013-03-04 12:15:00,
2013-03-04 06:20:00,10.9,8.3,30.11,NW,313,0.0,1.0,89,0.00, +TSGR FG,SKC,-99.99,VWS V12.07,2013-03-04 12:20:00,
2013-03-04 06:25:00,11.6,9.2,30.11,NW,313,0.0,0.0,90,0.00, +TSGR FG,SKC,-99.99,VWS V12.07,2013-03-04 12:25:00,
2013-03-04 06:30:00,12.3,9.9,30.10,NW,313,0.0,1.0,90,0.00, +TSGR FG,SKC,-99.99,VWS V12.07,2013-03-04 12:30:00,
2013-03-04 06:35:00,13.2,10.6,30.10,North,5,1.0,2.0,89,0.00, +TSGR FG,SKC,-99.99,VWS V12.07,2013-03-04 12:35:00,
2013-03-04 06:40:00,14.3,11.7,30.10,ENE,58,2.0,2.0,89,0.00, +TSGR FG,SKC,-99.99,VWS V12.07,2013-03-04 12:40:00,
2013-03-04 06:45:00,15.4,12.5,30.10,ENE,59,0.0,2.0,88,0.00, +TSGR FG,SKC,-99.99,VWS V12.07,2013-03-04 12:45:00,
2013-03-04 06:50:00,16.1,12.9,30.10,ENE,59,1.0,2.0,87,0.00, +TSGR FG,SKC,-99.99,VWS V12.07,2013-03-04 12:50:00,
2013-03-04 07:00:00,17.0,13.3,30.10,ENE,59,0.0,2.0,85,0.00, +TSGR FG,SKC,-99.99,VWS V12.07,2013-03-04 13:00:00,
2013-03-04 07:05:00,17.2,13.2,30.10,ENE,59,0.0,0.0,84,0.00, +TSGR FG,SKC,-99.99,VWS V12.07,2013-03-04 13:05:00,
2013-03-04 07:10:00,17.3,13.3,30.10,ENE,59,0.0,0.0,84,0.00, +TSGR FG,SKC,-99.99,VWS V12.07,2013-03-04 13:10:00,
2013-03-04 07:15:00,17.7,13.7,30.10,ENE,59,1.0,2.0,84,0.00, +TSGR FG,SKC,-99.99,VWS V12.07,2013-03-04 13:15:00,
2013-03-04 07:20:00,18.4,14.4,30.10,NNE,15,2.0,3.0,84,0.00, +TSGR FG,SKC,-99.99,VWS V12.07,2013-03-04 13:20:00,
2013-03-04 07:25:00,19.0,15.0,30.10,NE,42,0.0,2.0,84,0.00, +TSGR FG,SKC,-99.99,VWS V12.07,2013-03-04 13:25:00,
2013-03-04 07:30:00,19.6,15.3,30.10,NE,42,1.0,3.0,83,0.00, +TSGR FG,SKC,-99.99,VWS V12.07,2013-03-04 13:30:00,
2013-03-04 07:35:00,20.2,15.6,30.10,NE,42,1.0,3.0,82,0.00, +TSGR FG,SKC,-99.99,VWS V12.07,2013-03-04 13:35:00,
2013-03-04 07:40:00,20.6,15.7,30.10,NE,42,2.0,3.0,81,0.00, +TSGR FG,SKC,-99.99,VWS V12.07,2013-03-04 13:40:00,
2013-03-04 07:45:00,21.0,15.8,30.10,NE,42,3.0,3.0,80,0.00, +TSGR FG,SKC,-99.99,VWS V12.07,2013-03-04 13:45:00,
2013-03-04 07:50:00,21.4,16.2,30.10,NE,42,3.0,3.0,80,0.00, +TSGR FG,SKC,-99.99,VWS V12.07,2013-03-04 13:50:00,
2013-03-04 07:55:00,21.8,16.3,30.10,NE,42,1.0,3.0,79,0.00, +TSGR FG,SKC,-99.99,VWS V12.07,2013-03-04 13:55:00,
2013-03-04 08:00:00,22.0,16.5,30.10,NE,42,1.0,3.0,79,0.00, +TSGR FG,SKC,-99.99,VWS V12.07,2013-03-04 14:00:00,
2013-03-04 08:10:00,22.7,16.6,30.10,NE,51,3.0,5.0,77,0.00, +TSGR FG,SKC,-99.99,VWS V12.07,2013-03-04 14:10:00,
2013-03-04 08:15:00,23.1,17.0,30.10,NE,40,6.0,6.0,77,0.00, +TSGR FG,SKC,-99.99,VWS V12.07,2013-03-04 14:15:00,
2013-03-04 08:20:00,23.3,17.2,30.10,NE,36,2.0,6.0,77,0.00, +TSGR FG,SKC,-99.99,VWS V12.07,2013-03-04 14:20:00,
2013-03-04 08:25:00,23.5,17.7,30.10,NE,43,4.0,5.0,78,0.00, +TSGR FG,SKC,-99.99,VWS V12.07,2013-03-04 14:25:00,
2013-03-04 08:30:00,23.8,18.0,30.10,NE,49,0.0,5.0,78,0.00, +TSGR FG,SKC,-99.99,VWS V12.07,2013-03-04 14:30:00,
2013-03-04 08:35:00,24.1,18.2,30.10,ENE,59,2.0,5.0,78,0.00, +TSGR FG,SKC,-99.99,VWS V12.07,2013-03-04 14:35:00,
2013-03-04 08:40:00,24.4,18.8,30.10,NE,38,4.0,5.0,79,0.00, +TSGR FG,SKC,-99.99,VWS V12.07,2013-03-04 14:40:00,
2013-03-04 08:45:00,24.8,19.2,30.10,ENE,59,1.0,5.0,79,0.00, +TSGR FG,SKC,-99.99,VWS V12.07,2013-03-04 14:45:00,
2013-03-04 08:50:00,25.2,19.6,30.10,East,86,4.0,5.0,79,0.00, +TSGR FG,SKC,-99.99,VWS V12.07,2013-03-04 14:50:00,
2013-03-04 08:55:00,25.5,19.9,30.10,ENE,73,4.0,4.0,79,0.00, +TSGR FG,SKC,-99.99,VWS V12.07,2013-03-04 14:55:00,
2013-03-04 09:00:00,25.8,20.2,30.10,ENE,67,3.0,4.0,79,0.00, +TSGR FG,SKC,-99.99,VWS V12.07,2013-03-04 15:00:00,
2013-03-04 09:05:00,26.2,20.6,30.10,NE,46,4.0,5.0,79,0.00, +TSGR FG,SKC,-99.99,VWS V12.07,2013-03-04 15:05:00,
2013-03-04 09:10:00,26.5,20.9,30.09,ENE,66,4.0,5.0,79,0.00, +TSGR FG,SKC,-99.99,VWS V12.07,2013-03-04 15:10:00,
2013-03-04 09:15:00,26.8,21.5,30.09,ENE,59,2.0,3.0,80,0.00, +TSGR FG,SKC,-99.99,VWS V12.07,2013-03-04 15:15:00,
2013-03-04 09:20:00,27.1,21.8,30.09,NE,43,4.0,4.0,80,0.00, +TSGR FG,SKC,-99.99,VWS V12.07,2013-03-04 15:20:00,
2013-03-04 09:25:00,27.5,22.1,30.09,ENE,57,2.0,4.0,80,0.00, +TSGR FG,SKC,-99.99,VWS V12.07,2013-03-04 15:25:00,
2013-03-04 09:30:00,27.9,22.5,30.09,ENE,59,3.0,4.0,80,0.00, +TSGR FG,SKC,-99.99,VWS V12.07,2013-03-04 15:30:00,
2013-03-04 09:35:00,28.4,23.0,30.09,ENE,72,3.0,4.0,80,0.00, +TSGR FG,SKC,-99.99,VWS V12.07,2013-03-04 15:35:00,
2013-03-04 09:40:00,28.7,23.3,30.09,ENE,76,1.0,4.0,80,0.00, +TSGR FG,SKC,-99.99,VWS V12.07,2013-03-04 15:40:00,
2013-03-04 09:45:00,29.1,23.7,30.09,ENE,76,1.0,2.0,80,0.00, +TSGR FG,SKC,-99.99,VWS V12.07,2013-03-04 15:45:00,
2013-03-04 09:50:00,29.4,24.0,30.09,ENE,71,1.0,5.0,80,0.00, +TSGR FG,SKC,-99.99,VWS V12.07,2013-03-04 15:50:00,
2013-03-04 09:55:00,29.8,24.4,30.09,East,95,4.0,6.0,80,0.00, +TSGR FG,SKC,-99.99,VWS V12.07,2013-03-04 15:55:00,
2013-03-04 10:00:00,29.9,24.2,30.09,ENE,71,4.0,7.0,79,0.00, +TSGR FG,SKC,-99.99,VWS V12.07,2013-03-04 16:00:00,
2013-03-04 10:05:00,29.7,24.0,30.09,East,90,7.0,8.0,79,0.00, +TSGR FG,SKC,-99.99,VWS V12.07,2013-03-04 16:05:00,
2013-03-04 10:10:00,29.8,24.4,30.09,East,100,7.0,8.0,80,0.00, +TSGR FG,SKC,-99.99,VWS V12.07,2013-03-04 16:10:00,
2013-03-04 10:15:00,30.3,24.9,30.09,East,86,4.0,7.0,80,0.00, +TSGR FG,SKC,-99.99,VWS V12.07,2013-03-04 16:15:00,
2013-03-04 10:20:00,30.8,24.8,30.08,East,98,6.0,9.0,78,0.00, +TSGR FG,SKC,-99.99,VWS V12.07,2013-03-04 16:20:00,
2013-03-04 10:25:00,30.9,24.5,30.09,ESE,113,5.0,9.0,77,0.00, +TSGR FG,SKC,-99.99,VWS V12.07,2013-03-04 16:25:00,
2013-03-04 10:30:00,31.1,24.1,30.09,East,96,4.0,9.0,75,0.00, +TSGR FG,SKC,-99.99,VWS V12.07,2013-03-04 16:30:00,
2013-03-04 10:35:00,31.4,24.1,30.09,ESE,111,6.0,8.0,74,0.00, +TSGR FG,SKC,-99.99,VWS V12.07,2013-03-04 16:35:00,
2013-03-04 10:40:00,31.5,24.2,30.09,SE,130,6.0,9.0,74,0.00, +TSGR FG,SKC,-99.99,VWS V12.07,2013-03-04 16:40:00,
2013-03-04 10:45:00,31.5,23.9,30.09,ESE,123,6.0,11.0,73,0.00, +TSGR FG,SKC,-99.99,VWS V12.07,2013-03-04 16:45:00,
2013-03-04 10:50:00,31.2,23.9,30.08,SE,128,6.0,11.0,74,0.00, +TSGR FG,SKC,-99.99,VWS V12.07,2013-03-04 16:50:00,
2013-03-04 10:55:00,31.1,23.5,30.08,SE,137,5.0,9.0,73,0.00, +TSGR FG,SKC,-99.99,VWS V12.07,2013-03-04 16:55:00,
2013-03-04 11:00:00,31.2,23.6,30.08,ESE,107,5.0,12.0,73,0.00, +TSGR FG,SKC,-99.99,VWS V12.07,2013-03-04 17:00:00,
2013-03-04 11:05:00,31.2,23.6,30.08,East,85,4.0,10.0,73,0.00, +TSGR FG,SKC,-99.99,VWS V12.07,2013-03-04 17:05:00,
2013-03-04 11:10:00,31.3,24.0,30.08,SE,130,5.0,10.0,74,0.00, +TSGR FG,SKC,-99.99,VWS V12.07,2013-03-04 17:10:00,
2013-03-04 11:15:00,31.7,23.7,30.07,NE,55,5.0,12.0,72,0.01, +TSGR FG,SKC,-99.99,VWS V12.07,2013-03-04 17:15:00,
2013-03-04 11:20:00,31.7,23.7,30.07,ESE,113,6.0,12.0,72,0.01, +TSGR FG,SKC,-99.99,VWS V12.07,2013-03-04 17:20:00,
2013-03-04 11:25:00,31.9,23.6,30.07,East,93,6.0,12.0,71,0.01, +TSGR FG,SKC,-99.99,VWS V12.07,2013-03-04 17:25:00,
2013-03-04 11:30:00,31.8,23.8,30.07,East,92,6.0,12.0,72,0.01, +TSGR FG,SKC,-99.99,VWS V12.07,2013-03-04 17:30:00,
2013-03-04 11:35:00,32.1,24.1,30.07,ENE,75,6.0,7.0,72,0.01, +TSGR FG,SKC,-99.99,VWS V12.07,2013-03-04 17:35:00,
2013-03-04 11:40:00,32.3,24.3,30.07,ENE,65,5.0,11.0,72,0.01, +TSGR FG,SKC,-99.99,VWS V12.07,2013-03-04 17:40:00,
2013-03-04 11:45:00,32.1,23.8,30.07,NE,55,7.0,11.0,71,0.01, +TSGR FG,SKC,-99.99,VWS V12.07,2013-03-04 17:45:00,
2013-03-04 11:50:00,32.0,24.0,30.07,East,86,4.0,11.0,72,0.01, +TSGR FG,SKC,-99.99,VWS V12.07,2013-03-04 17:50:00,
2013-03-04 11:55:00,32.1,24.1,30.07,East,97,5.0,10.0,72,0.01, +TSGR FG,SKC,-99.99,VWS V12.07,2013-03-04 17:55:00,
2013-03-04 12:00:00,32.1,23.8,30.06,ENE,76,5.0,10.0,71,0.01, +TSGR FG,SKC,-99.99,VWS V12.07,2013-03-04 18:00:00,
2013-03-04 12:05:00,32.0,24.0,30.06,ESE,117,9.0,11.0,72,0.01, +TSGR FG,SKC,-99.99,VWS V12.07,2013-03-04 18:05:00,
2013-03-04 12:10:00,32.0,24.0,30.06,ENE,61,10.0,11.0,72,0.01, +TSGR FG,SKC,-99.99,VWS V12.07,2013-03-04 18:10:00,
2013-03-04 12:15:00,31.9,23.9,30.06,East,81,4.0,9.0,72,0.01, +TSGR FG,SKC,-99.99,VWS V12.07,2013-03-04 18:15:00,
2013-03-04 12:20:00,32.1,24.1,30.06,ESE,105,4.0,9.0,72,0.01, +TSGR FG,SKC,-99.99,VWS V12.07,2013-03-04 18:20:00,
2013-03-04 12:25:00,32.4,24.4,30.06,NE,53,6.0,10.0,72,0.00, +TSGR FG,SKC,-99.99,VWS V12.07,2013-03-04 18:25:00,
2013-03-04 12:30:00,32.4,24.4,30.06,ESE,115,6.0,10.0,72,0.00, +TSGR FG,SKC,-99.99,VWS V12.07,2013-03-04 18:30:00,
2013-03-04 12:35:00,32.4,24.1,30.06,East,98,5.0,10.0,71,0.00, +TSGR FG,SKC,-99.99,VWS V12.07,2013-03-04 18:35:00,
2013-03-04 12:40:00,32.4,24.1,30.06,ESE,108,6.0,10.0,71,0.01, +TSGR FG,SKC,-99.99,VWS V12.07,2013-03-04 18:40:00,
2013-03-04 12:45:00,32.1,23.8,30.06,East,94,5.0,9.0,71,0.01, +TSGR FG,SKC,-99.99,VWS V12.07,2013-03-04 18:45:00,
2013-03-04 12:50:00,32.1,23.8,30.05,East,80,2.0,9.0,71,0.01, +TSGR FG,SKC,-99.99,VWS V12.07,2013-03-04 18:50:00,
2013-03-04 12:55:00,32.1,23.8,30.05,East,96,5.0,9.0,71,0.01, +TSGR FG,SKC,-99.99,VWS V12.07,2013-03-04 18:55:00,
2013-03-04 13:00:00,32.0,24.0,30.05,East,79,5.0,10.0,72,0.01, +TSGR FG,SKC,-99.99,VWS V12.07,2013-03-04 19:00:00,
2013-03-04 13:05:00,32.1,24.1,30.05,ENE,78,6.0,9.0,72,0.01, +TSGR FG,SKC,-99.99,VWS V12.07,2013-03-04 19:05:00,
2013-03-04 13:10:00,31.7,23.7,30.05,ENE,78,4.0,10.0,72,0.01, +TSGR FG,SKC,-99.99,VWS V12.07,2013-03-04 19:10:00,
2013-03-04 13:15:00,31.7,24.0,30.05,ENE,60,6.0,9.0,73,0.01, +TSGR FG,SKC,-99.99,VWS V12.07,2013-03-04 19:15:00,
2013-03-04 13:20:00,31.8,24.1,30.04,East,83,7.0,11.0,73,0.01, +TSGR FG,SKC,-99.99,VWS V12.07,2013-03-04 19:20:00,
2013-03-04 13:25:00,31.7,24.0,30.04,ESE,109,8.0,11.0,73,0.01, +TSGR FG,SKC,-99.99,VWS V12.07,2013-03-04 19:25:00,
2013-03-04 13:30:00,31.5,24.2,30.04,East,99,7.0,11.0,74,0.01, +TSGR FG,SKC,-99.99,VWS V12.07,2013-03-04 19:30:00,
2013-03-04 13:35:00,31.5,24.5,30.04,ENE,67,3.0,9.0,75,0.01, +TSGR FG,SKC,-99.99,VWS V12.07,2013-03-04 19:35:00,
2013-03-04 13:40:00,31.4,24.1,30.04,East,97,4.0,9.0,74,0.01, +TSGR FG,SKC,-99.99,VWS V12.07,2013-03-04 19:40:00,
2013-03-04 13:45:00,31.4,24.1,30.04,East,90,5.0,11.0,74,0.00, +TSGR FG,SKC,-99.99,VWS V12.07,2013-03-04 19:45:00,
2013-03-04 13:50:00,31.3,24.3,30.04,East,91,7.0,11.0,75,0.00, +TSGR FG,SKC,-99.99,VWS V12.07,2013-03-04 19:50:00,
2013-03-04 13:55:00,31.2,24.2,30.04,East,98,6.0,11.0,75,0.00, +TSGR FG,SKC,-99.99,VWS V12.07,2013-03-04 19:55:00,
2013-03-04 14:05:00,31.1,23.8,30.03,East,93,8.0,11.0,74,0.01, +TSGR FG,SKC,-99.99,VWS V12.07,2013-03-04 20:05:00,
2013-03-04 14:10:00,31.1,24.1,30.04,East,101,6.0,11.0,75,0.01, +TSGR FG,SKC,-99.99,VWS V12.07,2013-03-04 20:10:00,
2013-03-04 14:15:00,31.1,24.1,30.04,East,101,9.0,11.0,75,0.01, +TSGR FG,SKC,-99.99,VWS V12.07,2013-03-04 20:15:00,
2013-03-04 14:20:00,31.0,24.6,30.04,ENE,67,6.0,12.0,77,0.01, +TSGR FG,SKC,-99.99,VWS V12.07,2013-03-04 20:20:00,
2013-03-04 14:25:00,30.7,25.6,30.04,ENE,71,4.0,11.0,81,0.01, +TSGR FG,SKC,-99.99,VWS V12.07,2013-03-04 20:25:00,
2013-03-04 14:30:00,30.4,25.9,30.04,East,93,9.0,12.0,83,0.01, +TSGR FG,SKC,-99.99,VWS V12.07,2013-03-04 20:30:00,
2013-03-04 14:35:00,30.1,25.6,30.04,East,96,6.0,12.0,83,0.01, +TSGR FG,SKC,-99.99,VWS V12.07,2013-03-04 20:35:00,
2013-03-04 14:40:00,29.8,25.6,30.04,East,90,8.0,12.0,84,0.01, +TSGR FG,SKC,-99.99,VWS V12.07,2013-03-04 20:40:00,
2013-03-04 14:45:00,29.6,25.4,30.04,East,94,9.0,11.0,84,0.01, +TSGR FG,SKC,-99.99,VWS V12.07,2013-03-04 20:45:00,
2013-03-04 14:50:00,29.5,25.6,30.04,ENE,71,11.0,12.0,85,0.01, +TSGR FG,SKC,-99.99,VWS V12.07,2013-03-04 20:50:00,
2013-03-04 14:55:00,29.6,25.6,30.04,East,99,8.0,13.0,85,0.01, +TSGR FG,SKC,-99.99,VWS V12.07,2013-03-04 20:55:00,
2013-03-04 15:00:00,29.4,25.2,30.04,ESE,107,8.0,13.0,84,0.01, +TSGR FG,SKC,-99.99,VWS V12.07,2013-03-04 21:00:00,
2013-03-04 15:05:00,29.3,25.1,30.04,ENE,67,5.0,13.0,84,0.00, +TSGR FG,SKC,-99.99,VWS V12.07,2013-03-04 21:05:00,
2013-03-04 15:10:00,29.3,25.1,30.04,East,88,4.0,13.0,84,0.00, +TSGR FG,SKC,-99.99,VWS V12.07,2013-03-04 21:10:00,
2013-03-04 15:15:00,29.2,25.0,30.04,ENE,74,10.0,12.0,84,0.00, +TSGR FG,SKC,-99.99,VWS V12.07,2013-03-04 21:15:00,
2013-03-04 15:20:00,29.0,24.8,30.04,East,90,8.0,12.0,84,0.00, +TSGR FG,SKC,-99.99,VWS V12.07,2013-03-04 21:20:00,
2013-03-04 15:25:00,29.0,24.8,30.04,East,91,8.0,8.0,84,0.00, +TSGR FG,SKC,-99.99,VWS V12.07,2013-03-04 21:25:00,
2013-03-04 15:30:00,28.9,24.7,30.04,ENE,74,5.0,8.0,84,0.00, +TSGR FG,SKC,-99.99,VWS V12.07,2013-03-04 21:30:00,
2013-03-04 15:35:00,29.0,24.8,30.04,East,96,7.0,8.0,84,0.00, +TSGR FG,SKC,-99.99,VWS V12.07,2013-03-04 21:35:00,
2013-03-04 15:40:00,29.1,24.9,30.04,ENE,78,3.0,8.0,84,0.00, +TSGR FG,SKC,-99.99,VWS V12.07,2013-03-04 21:40:00,
2013-03-04 15:45:00,29.0,24.8,30.04,East,90,4.0,9.0,84,0.00, +TSGR FG,SKC,-99.99,VWS V12.07,2013-03-04 21:45:00,
2013-03-04 15:55:00,28.9,24.4,30.04,ENE,71,5.0,12.0,83,0.00, +TSGR FG,SKC,-99.99,VWS V12.07,2013-03-04 21:55:00,
2013-03-04 16:00:00,28.9,24.4,30.04,East,93,6.0,12.0,83,0.00, +TSGR FG,SKC,-99.99,VWS V12.07,2013-03-04 22:00:00,
2013-03-04 16:05:00,28.9,24.4,30.04,ESE,107,9.0,9.0,83,0.00, +TSGR FG,SKC,-99.99,VWS V12.07,2013-03-04 22:05:00,
2013-03-04 16:10:00,28.8,24.3,30.04,East,88,5.0,11.0,83,0.00, +TSGR FG,SKC,-99.99,VWS V12.07,2013-03-04 22:10:00,
2013-03-04 16:15:00,28.8,24.0,30.03,ESE,106,6.0,12.0,82,0.00, +TSGR FG,SKC,-99.99,VWS V12.07,2013-03-04 22:15:00,
2013-03-04 16:20:00,28.8,24.0,30.03,ENE,65,4.0,12.0,82,0.00, +TSGR FG,SKC,-99.99,VWS V12.07,2013-03-04 22:20:00,
2013-03-04 16:25:00,28.8,24.0,30.03,ESE,102,8.0,11.0,82,0.00, +TSGR FG,SKC,-99.99,VWS V12.07,2013-03-04 22:25:00,
2013-03-04 16:35:00,28.7,24.2,30.03,ENE,69,4.0,10.0,83,0.00, +TSGR FG,SKC,-99.99,VWS V12.07,2013-03-04 22:35:00,
2013-03-04 16:40:00,28.8,24.6,30.03,ENE,71,3.0,10.0,84,0.00, +TSGR FG,SKC,-99.99,VWS V12.07,2013-03-04 22:40:00,
2013-03-04 16:45:00,28.8,24.3,30.03,ENE,72,3.0,9.0,83,0.00, +TSGR FG,SKC,-99.99,VWS V12.07,2013-03-04 22:45:00,
2013-03-04 16:50:00,28.8,24.6,30.03,East,92,7.0,9.0,84,0.00, +TSGR FG,SKC,-99.99,VWS V12.07,2013-03-04 22:50:00,
2013-03-04 16:55:00,28.8,24.3,30.03,ENE,60,7.0,8.0,83,0.00, +TSGR FG,SKC,-99.99,VWS V12.07,2013-03-04 22:55:00,
2013-03-04 17:05:00,28.8,24.3,30.03,ENE,66,4.0,8.0,83,0.00, +TSGR FG,SKC,-99.99,VWS V12.07,2013-03-04 23:05:00,
2013-03-04 17:10:00,28.8,24.0,30.03,ENE,57,6.0,8.0,82,0.00, +TSGR FG,SKC,-99.99,VWS V12.07,2013-03-04 23:10:00,
2013-03-04 17:15:00,28.8,24.0,30.03,NE,54,5.0,8.0,82,0.00, +TSGR FG,SKC,-99.99,VWS V12.07,2013-03-04 23:15:00,
2013-03-04 17:20:00,28.8,24.0,30.03,ENE,65,6.0,8.0,82,0.00, +TSGR FG,SKC,-99.99,VWS V12.07,2013-03-04 23:20:00,
2013-03-04 17:25:00,28.7,23.9,30.02,ENE,63,10.0,12.0,82,0.00, +TSGR FG,SKC,-99.99,VWS V12.07,2013-03-04 23:25:00,
2013-03-04 17:30:00,28.7,23.9,30.02,NE,49,6.0,12.0,82,0.00, +TSGR FG,SKC,-99.99,VWS V12.07,2013-03-04 23:30:00,
2013-03-04 17:35:00,28.6,23.8,30.02,ENE,65,4.0,8.0,82,0.00, +TSGR FG,SKC,-99.99,VWS V12.07,2013-03-04 23:35:00,
2013-03-04 17:40:00,28.6,23.8,30.02,ENE,69,4.0,10.0,82,0.00, +TSGR FG,SKC,-99.99,VWS V12.07,2013-03-04 23:40:00,
2013-03-04 17:45:00,28.6,23.8,30.02,East,83,3.0,9.0,82,0.00, +TSGR FG,SKC,-99.99,VWS V12.07,2013-03-04 23:45:00,
2013-03-04 17:50:00,28.6,23.8,30.02,ENE,65,4.0,9.0,82,0.00, +TSGR FG,SKC,-99.99,VWS V12.07,2013-03-04 23:50:00,
2013-03-04 17:55:00,28.6,23.8,30.03,NE,50,7.0,11.0,82,0.00, +TSGR FG,SKC,-99.99,VWS V12.07,2013-03-04 23:55:00,
2013-03-04 18:00:00,28.6,24.1,30.03,East,99,5.0,11.0,83,0.00, +TSGR FG,SKC,-99.99,VWS V12.07,2013-03-05 00:00:00,
2013-03-04 18:05:00,28.6,24.1,30.03,ENE,74,3.0,8.0,83,0.00, +TSGR FG,SKC,-99.99,VWS V12.07,2013-03-05 00:05:00,
2013-03-04 18:10:00,28.7,24.2,30.02,ENE,71,6.0,8.0,83,0.00, +TSGR FG,SKC,-99.99,VWS V12.07,2013-03-05 00:10:00,
2013-03-04 18:15:00,28.7,24.2,30.02,ENE,75,5.0,8.0,83,0.00, +TSGR FG,SKC,-99.99,VWS V12.07,2013-03-05 00:15:00,
2013-03-04 18:20:00,28.7,23.9,30.03,ENE,69,10.0,10.0,82,0.00, +TSGR FG,SKC,-99.99,VWS V12.07,2013-03-05 00:20:00,
2013-03-04 18:25:00,28.8,24.0,30.03,NE,38,5.0,8.0,82,0.00, +TSGR FG,SKC,-99.99,VWS V12.07,2013-03-05 00:25:00,
2013-03-04 18:30:00,28.8,23.7,30.03,NE,51,7.0,9.0,81,0.00, +TSGR FG,SKC,-99.99,VWS V12.07,2013-03-05 00:30:00,
2013-03-04 18:35:00,28.8,24.0,30.04,NE,51,6.0,8.0,82,0.00, +TSGR FG,SKC,-99.99,VWS V12.07,2013-03-05 00:35:00,
2013-03-04 18:40:00,28.8,23.7,30.04,East,87,3.0,8.0,81,0.00, +TSGR FG,SKC,-99.99,VWS V12.07,2013-03-05 00:40:00,
2013-03-04 18:45:00,28.9,23.8,30.04,ENE,69,3.0,8.0,81,0.00, +TSGR FG,SKC,-99.99,VWS V12.07,2013-03-05 00:45:00,
2013-03-04 18:50:00,28.9,23.8,30.04,ENE,66,3.0,9.0,81,0.00, +TSGR FG,SKC,-99.99,VWS V12.07,2013-03-05 00:50:00,
2013-03-04 18:55:00,28.9,23.8,30.04,ENE,68,4.0,5.0,81,0.00, +TSGR FG,SKC,-99.99,VWS V12.07,2013-03-05 00:55:00,
2013-03-04 19:00:00,28.9,24.1,30.04,ENE,65,4.0,6.0,82,0.00, +TSGR FG,SKC,-99.99,VWS V12.07,2013-03-05 01:00:00,
2013-03-04 19:05:00,29.0,24.2,30.04,ENE,69,3.0,8.0,82,0.00, +TSGR FG,SKC,-99.99,VWS V12.07,2013-03-05 01:05:00,
2013-03-04 19:15:00,29.1,24.3,30.04,ENE,66,3.0,7.0,82,0.00, +TSGR FG,SKC,-99.99,VWS V12.07,2013-03-05 01:15:00,
2013-03-04 19:20:00,29.1,24.3,30.04,ENE,71,4.0,7.0,82,0.00, +TSGR FG,SKC,-99.99,VWS V12.07,2013-03-05 01:20:00,
2013-03-04 19:25:00,29.2,24.4,30.03,NE,44,4.0,5.0,82,0.00, +TSGR FG,SKC,-99.99,VWS V12.07,2013-03-05 01:25:00,
2013-03-04 19:30:00,29.2,24.4,30.03,ENE,61,3.0,5.0,82,0.00, +TSGR FG,SKC,-99.99,VWS V12.07,2013-03-05 01:30:00,
2013-03-04 19:35:00,29.2,24.4,30.03,NE,55,4.0,5.0,82,0.00, +TSGR FG,SKC,-99.99,VWS V12.07,2013-03-05 01:35:00,
2013-03-04 19:40:00,29.3,24.5,30.03,ENE,64,2.0,6.0,82,0.00, +TSGR FG,SKC,-99.99,VWS V12.07,2013-03-05 01:40:00,
2013-03-04 19:45:00,29.4,24.3,30.03,ENE,65,5.0,6.0,81,0.00, +TSGR FG,SKC,-99.99,VWS V12.07,2013-03-05 01:45:00,
2013-03-04 19:50:00,29.4,24.3,30.03,ENE,74,6.0,7.0,81,0.00, +TSGR FG,SKC,-99.99,VWS V12.07,2013-03-05 01:50:00,
2013-03-04 19:55:00,29.6,24.5,30.04,ENE,64,3.0,7.0,81,0.00, +TSGR FG,SKC,-99.99,VWS V12.07,2013-03-05 01:55:00,
2013-03-04 20:00:00,29.8,24.4,30.04,NE,54,5.0,7.0,80,0.00, +TSGR FG,SKC,-99.99,VWS V12.07,2013-03-05 02:00:00,
2013-03-04 20:05:00,29.9,24.5,30.04,ENE,62,3.0,7.0,80,0.00, +TSGR FG,SKC,-99.99,VWS V12.07,2013-03-05 02:05:00,
2013-03-04 20:10:00,30.0,24.6,30.04,ENE,66,2.0,7.0,80,0.00, +TSGR FG,SKC,-99.99,VWS V12.07,2013-03-05 02:10:00,
2013-03-04 20:15:00,30.0,24.6,30.04,East,92,8.0,8.0,80,0.00, +TSGR FG,SKC,-99.99,VWS V12.07,2013-03-05 02:15:00,
2013-03-04 20:20:00,30.1,24.4,30.04,NE,53,5.0,8.0,79,0.00, +TSGR FG,SKC,-99.99,VWS V12.07,2013-03-05 02:20:00,
2013-03-04 20:30:00,30.2,24.2,30.04,East,92,2.0,9.0,78,0.00, +TSGR FG,SKC,-99.99,VWS V12.07,2013-03-05 02:30:00,
2013-03-04 20:40:00,30.4,24.4,30.04,East,89,3.0,9.0,78,0.00, +TSGR FG,SKC,-99.99,VWS V12.07,2013-03-05 02:40:00,
2013-03-04 20:45:00,30.4,24.1,30.05,ENE,59,4.0,11.0,77,0.00, +TSGR FG,SKC,-99.99,VWS V12.07,2013-03-05 02:45:00,
2013-03-04 20:50:00,30.5,24.2,30.04,East,82,5.0,11.0,77,0.00, +TSGR FG,SKC,-99.99,VWS V12.07,2013-03-05 02:50:00,
2013-03-04 20:55:00,30.5,24.2,30.04,ENE,76,3.0,7.0,77,0.00, +TSGR FG,SKC,-99.99,VWS V12.07,2013-03-05 02:55:00,
2013-03-04 21:00:00,30.5,24.2,30.04,East,80,4.0,7.0,77,0.00, +TSGR FG,SKC,-99.99,VWS V12.07,2013-03-05 03:00:00,
2013-03-04 21:10:00,30.6,24.3,30.04,East,79,3.0,9.0,77,0.00, +TSGR FG,SKC,-99.99,VWS V12.07,2013-03-05 03:10:00,
2013-03-04 21:15:00,30.6,24.3,30.04,East,88,6.0,7.0,77,0.00, +TSGR FG,SKC,-99.99,VWS V12.07,2013-03-05 03:15:00,
2013-03-04 21:20:00,30.6,24.3,30.04,East,82,2.0,7.0,77,0.00, +TSGR FG,SKC,-99.99,VWS V12.07,2013-03-05 03:20:00,
2013-03-04 21:25:00,30.7,24.7,30.04,ENE,74,2.0,7.0,78,0.00, +TSGR FG,SKC,-99.99,VWS V12.07,2013-03-05 03:25:00,
2013-03-04 21:30:00,30.7,24.7,30.04,ENE,76,2.0,7.0,78,0.00, +TSGR FG,SKC,-99.99,VWS V12.07,2013-03-05 03:30:00,
2013-03-04 21:35:00,30.8,24.8,30.04,ENE,63,5.0,7.0,78,0.00, +TSGR FG,SKC,-99.99,VWS V12.07,2013-03-05 03:35:00,
2013-03-04 21:40:00,30.8,24.8,30.05,ENE,69,2.0,7.0,78,0.00, +TSGR FG,SKC,-99.99,VWS V12.07,2013-03-05 03:40:00,
2013-03-04 21:45:00,30.9,24.9,30.05,East,86,3.0,6.0,78,0.00, +TSGR FG,SKC,-99.99,VWS V12.07,2013-03-05 03:45:00,
2013-03-04 21:55:00,31.0,24.6,30.05,East,86,3.0,7.0,77,0.00, +TSGR FG,SKC,-99.99,VWS V12.07,2013-03-05 03:55:00,
2013-03-04 22:00:00,31.0,24.6,30.05,ENE,74,2.0,7.0,77,0.00, +TSGR FG,SKC,-99.99,VWS V12.07,2013-03-05 04:00:00,
2013-03-04 22:05:00,31.0,24.3,30.05,ENE,77,3.0,5.0,76,0.00, +TSGR FG,SKC,-99.99,VWS V12.07,2013-03-05 04:05:00,
2013-03-04 22:15:00,31.0,24.3,30.05,ESE,105,4.0,5.0,76,0.00, +TSGR FG,SKC,-99.99,VWS V12.07,2013-03-05 04:15:00,
2013-03-04 22:20:00,31.0,24.0,30.05,East,86,4.0,7.0,75,0.00, +TSGR FG,SKC,-99.99,VWS V12.07,2013-03-05 04:20:00,
2013-03-04 22:25:00,31.1,23.8,30.04,East,87,3.0,8.0,74,0.00, +TSGR FG,SKC,-99.99,VWS V12.07,2013-03-05 04:25:00,
2013-03-04 22:30:00,31.1,23.8,30.04,ENE,71,4.0,8.0,74,0.00, +TSGR FG,SKC,-99.99,VWS V12.07,2013-03-05 04:30:00,
2013-03-04 22:40:00,31.1,24.1,30.03,ENE,62,3.0,7.0,75,0.00, +TSGR FG,SKC,-99.99,VWS V12.07,2013-03-05 04:40:00,
2013-03-04 22:45:00,31.1,24.1,30.03,East,92,2.0,6.0,75,0.00, +TSGR FG,SKC,-99.99,VWS V12.07,2013-03-05 04:45:00,
2013-03-04 22:50:00,31.1,24.1,30.03,East,88,3.0,6.0,75,0.00, +TSGR FG,SKC,-99.99,VWS V12.07,2013-03-05 04:50:00,
2013-03-04 23:00:00,31.1,24.1,30.03,East,95,5.0,6.0,75,0.00, +TSGR FG,SKC,-99.99,VWS V12.07,2013-03-05 05:00:00,
2013-03-04 23:05:00,31.2,24.2,30.02,NE,51,7.0,9.0,75,0.00, +TSGR FG,SKC,-99.99,VWS V12.07,2013-03-05 05:05:00,
2013-03-04 23:10:00,31.3,24.3,30.02,East,93,8.0,10.0,75,0.00, +TSGR FG,SKC,-99.99,VWS V12.07,2013-03-05 05:10:00,
2013-03-04 23:15:00,31.3,24.3,30.03,ENE,74,3.0,7.0,75,0.00, +TSGR FG,SKC,-99.99,VWS V12.07,2013-03-05 05:15:00,
2013-03-04 23:20:00,31.3,24.3,30.02,ENE,76,6.0,10.0,75,0.00, +TSGR FG,SKC,-99.99,VWS V12.07,2013-03-05 05:20:00,
2013-03-04 23:25:00,31.4,24.4,30.02,ENE,69,5.0,6.0,75,0.00, +TSGR FG,SKC,-99.99,VWS V12.07,2013-03-05 05:25:00,
2013-03-04 23:30:00,31.4,24.4,30.02,ENE,61,5.0,6.0,75,0.00, +TSGR FG,SKC,-99.99,VWS V12.07,2013-03-05 05:30:00,
2013-03-04 23:35:00,31.5,24.8,30.02,ENE,68,3.0,6.0,76,0.00, +TSGR FG,SKC,-99.99,VWS V12.07,2013-03-05 05:35:00,
2013-03-04 23:40:00,31.5,24.8,30.02,NE,55,5.0,7.0,76,0.00, +TSGR FG,SKC,-99.99,VWS V12.07,2013-03-05 05:40:00,
2013-03-04 23:45:00,31.5,25.1,30.02,East,80,4.0,5.0,77,0.00, +TSGR FG,SKC,-99.99,VWS V12.07,2013-03-05 05:45:00,
2013-03-04 23:50:00,31.6,25.2,30.02,NE,36,4.0,7.0,77,0.00, +TSGR FG,SKC,-99.99,VWS V12.07,2013-03-05 05:50:00,
2013-03-04 23:55:00,31.6,25.2,30.02,ENE,76,4.0,7.0,77,0.00, +TSGR FG,SKC,-99.99,VWS V12.07,2013-03-05 05:55:00,